RH
19 18 19 18 16 14 16 17 18 20 33 42 51 53 55 62 62 65 66 60 55 51 51 54 57 56 53 57 62 61 65 75 65 62 63 64 59 57 46 31 31 34 36 38
22 24 21 28 26 25 26 28 34 34 35 39 45 55 54 57 65 68 66 67 60 61 67 68 69 71 70 68 73 68 62 55 54 57 56 56 44 31 37 38 38 40 41 44
27 22 25 27 29 31 32 31 35 34 36 35 38 47 57 57 65 69 71 72 74 75 85 90 79 63 54 51 52 48 45 54 50 41 41 43 45 43 43 45 46 45 46 48
30 28 25 27 30 29 34 32 37 39 36 36 34 38 55 58 62 62 66 68 70 72 72 66 53 47 42 37 38 40 41 42 44 45 46 48 50 50 49 48 47 48 53 55
31 28 28 30 28 30 35 37 33 32 32 32 37 37 44 55 63 60 61 65 63 60 54 46 41 36 36 40 43 45 46 47 48 49 50 51 52 53 54 52 53 54 56 56
32 27 28 27 32 31 38 37 40 43 40 43 38 34 41 56 53 55 58 62 55 47 41 40 39 40 44 46 47 47 49 50 52 52 53 54 54 54 53 49 45 42 41 36
31 31 28 27 31 30 34 38 48 49 54 47 46 44 34 38 45 47 51 54 50 46 43 46 45 46 46 46 46 47 50 52 56 61 59 57 56 45 27 20 16 12 10 9
34 37 27 28 29 32 36 37 53 57 60 45 45 48 33 36 39 44 47 51 49 49 50 50 48 46 45 47 50 53 57 58 54 51 44 40 29 23 17 12 8 6 5 3
41 36 27 28 28 29 33 36 40 58 60 54 46 42 34 42 40 49 53 53 56 52 53 53 52 51 54 56 58 55 47 44 46 44 38 30 25 23 21 17 12 8 7 8
39 36 31 29 30 33 31 35 39 47 56 54 45 51 40 49 43 44 51 53 54 52 54 57 58 59 60 57 50 49 48 44 44 42 32 26 24 25 22 22 14 11 11 15
35 40 38 33 34 34 35 38 50 45 53 42 48 37 43 43 40 43 44 54 49 53 57 60 60 60 55 49 48 48 46 44 43 34 29 29 32 32 34 24 15 16 22 35
41 51 51 34 33 36 32 36 38 44 39 62 61 36 48 52 46 47 47 48 50 54 59 60 60 56 49 45 41 39 45 44 36 31 31 34 38 39 37 26 21 29 36 54
43 51 56 39 30 32 35 42 45 52 62 62 73 33 50 60 55 50 50 52 54 59 59 58 56 51 44 36 45 51 46 38 31 31 34 37 40 44 42 29 32 42 45 52
39 51 46 46 36 40 41 47 44 40 52 51 58 37 34 48 54 63 63 58 59 58 55 56 54 50 40 37 47 38 35 32 31 33 36 39 44 48 44 33 38 47 52 61
45 48 51 57 56 46 34 44 45 37 40 46 40 43 33 38 48 60 68 65 57 55 56 56 54 44 35 48 39 32 32 30 32 35 38 42 48 50 42 38 41 54 59 79
58 61 56 62 62 57 48 39 43 49 47 42 46 45 36 52 60 67 66 61 60 56 56 56 48 41 36 38 34 31 31 31 34 37 39 43 51 51 40 46 47 57 71 91
61 77 53 48 63 50 49 47 42 47 44 43 53 37 58 62 62 60 66 63 58 55 56 54 48 42 38 37 33 30 31 33 35 38 39 44 52 45 52 54 53 56 73 85
77 65 64 64 66 46 31 44 40 41 41 42 48 48 54 57 58 55 54 52 54 54 56 54 47 41 37 37 30 29 31 33 37 38 40 51 45 54 64 59 58 56 70 69
60 72 77 70 56 41 26 41 55 54 37 46 46 50 66 68 63 58 51 51 50 53 54 52 42 37 37 34 27 27 30 37 36 37 39 38 51 58 71 67 64 56 67 63
68 73 65 72 50 46 34 33 51 42 53 43 55 63 73 68 74 47 41 50 54 58 58 49 38 37 33 28 25 30 40 35 29 29 31 38 45 56 72 76 72 56 62 60
93 92 71 77 69 56 40 45 44 49 44 46 52 51 70 65 50 39 40 46 54 58 53 41 44 33 29 28 36 44 32 24 27 32 36 38 42 48 65 73 77 61 59 49
71 80 82 83 73 57 39 50 57 48 40 33 39 38 47 36 41 51 50 50 55 60 48 60 45 29 32 43 41 26 22 27 32 35 33 31 34 47 55 69 80 65 51 55
67 63 67 61 62 39 37 45 36 42 41 39 39 36 43 49 55 59 58 55 56 54 56 36 34 41 43 32 23 22 26 32 34 32 29 31 40 55 64 78 85 69 58 70
68 59 67 63 46 52 40 38 36 35 38 38 40 44 49 52 59 64 60 57 53 43 40 71 78 38 26 21 23 27 32 35 35 33 34 41 52 68 84 90 91 73 71 77
66 65 67 69 58 46 36 33 33 38 40 42 46 48 52 62 69 73 65 51 45 62 88 74 32 25 22 24 27 31 33 34 34 39 50 49 86 89 94 96 98 93 76 88
67 65 74 72 34 41 36 38 47 50 50 51 54 57 65 74 77 72 51 49 83 96 53 31 24 24 26 26 33 35 35 36 44 56 67 99 100 100 100 100 100 94 88 93
Wind_Speed
1 4 4 3 3 3 5 3 6 3 3 7 8 8 9 8 10 9 10 13 14 13 11 10 10 9 9 9 9 7 7 8 3 4 4 4 5 8 11 8 11 13 16 18
6 5 2 5 5 6 5 6 4 5 4 6 8 11 8 9 5 5 11 14 17 19 17 15 15 17 14 14 11 12 13 10 8 7 3 6 5 2 6 11 14 16 17 19
6 2 3 5 4 7 4 7 4 5 7 8 7 5 4 6 8 10 12 16 19 24 27 26 24 24 25 23 20 17 14 12 9 8 5 1 4 6 10 13 15 16 18 17
6 2 4 4 3 1 4 4 11 11 2 3 3 3 1 2 5 7 10 13 19 25 27 27 28 29 28 24 21 19 18 14 10 5 2 4 6 8 11 13 14 15 16 18
0 3 3 5 2 1 4 6 7 3 4 3 2 2 3 5 7 9 11 10 17 23 26 27 27 26 26 24 20 17 12 8 5 4 4 5 6 7 8 9 11 15 19 21
3 3 2 3 2 4 10 6 6 3 2 0 1 2 5 10 14 13 12 12 18 24 25 25 24 25 23 20 17 14 10 9 6 4 4 6 7 9 12 15 18 20 23 26
4 2 1 1 5 3 5 4 2 1 1 3 1 2 5 15 12 18 21 20 23 24 24 22 22 21 20 18 15 12 9 5 2 3 7 9 11 13 16 20 23 25 28 29
4 0 2 4 2 4 2 4 4 5 4 2 1 5 3 3 15 22 24 21 23 24 23 20 18 18 18 18 15 12 7 2 3 6 9 9 11 16 20 24 26 27 27 27
3 1 2 3 1 1 3 2 2 6 2 1 2 3 6 1 10 15 18 21 22 23 22 19 17 18 19 17 13 7 1 5 3 5 8 13 18 23 26 28 29 29 27 25
5 3 1 1 2 7 1 6 3 2 4 3 2 5 5 6 14 12 16 20 21 21 21 20 21 20 17 13 10 5 2 4 7 8 13 18 22 26 28 29 29 29 27 22
3 3 2 1 0 4 3 2 5 4 1 3 2 4 4 8 13 16 22 20 23 23 24 25 22 18 14 11 6 3 9 8 7 11 16 19 23 26 26 28 27 25 21 15
1 4 3 1 0 1 1 3 4 3 4 1 0 5 1 6 10 12 12 19 21 24 26 23 19 16 13 8 3 5 6 8 10 13 17 19 22 22 26 27 26 23 20 13
5 1 3 3 2 1 2 2 4 5 2 5 3 3 0 3 5 12 16 18 20 26 25 23 19 16 11 6 3 9 9 8 10 14 16 18 18 22 27 28 26 24 22 18
3 3 4 7 3 1 4 4 4 3 3 4 6 4 4 5 7 9 14 18 22 27 25 22 19 15 11 6 9 12 4 7 11 15 17 17 18 23 28 27 27 25 21 18
2 4 2 1 1 1 2 4 8 7 4 6 4 8 6 9 12 15 14 20 25 27 25 21 18 16 13 7 8 5 7 9 13 16 18 19 19 24 28 26 27 23 17 13
2 4 2 4 1 3 3 5 7 6 3 10 4 11 8 3 9 15 21 26 27 28 25 21 19 16 19 9 8 8 8 12 16 18 21 20 21 26 26 27 26 20 14 12
2 6 3 3 2 2 5 9 10 5 5 7 8 8 6 6 14 21 23 27 28 27 25 22 19 18 15 11 12 10 11 14 18 21 22 21 23 26 24 26 24 19 16 15
5 4 2 2 1 1 4 2 2 9 6 12 4 4 7 4 11 16 24 29 30 27 24 21 18 17 13 14 14 12 14 17 21 22 21 21 24 24 24 24 21 18 16 17
4 4 3 3 3 5 4 3 5 6 5 10 12 6 4 4 3 11 21 27 27 24 21 16 13 12 13 15 15 16 16 19 22 23 23 23 23 23 22 23 19 17 15 15
4 5 3 3 2 4 4 2 4 3 4 2 11 7 9 11 4 6 11 25 26 22 18 15 15 14 15 17 16 15 17 21 23 24 23 22 22 22 22 23 20 17 16 18
2 3 3 2 3 7 6 1 4 3 4 2 12 14 18 8 13 7 8 13 23 22 17 16 12 17 15 15 13 15 19 22 23 22 21 23 24 25 25 25 20 18 17 17
5 5 3 3 1 6 6 4 5 4 4 6 10 14 24 20 17 14 10 10 17 22 18 15 18 15 12 10 13 17 20 21 21 21 24 27 28 26 27 23 19 17 16 16
3 4 3 7 4 4 13 9 11 10 9 11 11 16 20 22 24 18 13 14 18 20 16 16 11 8 9 12 14 17 18 19 20 24 28 29 27 26 21 17 17 14 15 13
3 5 3 1 2 10 15 17 23 25 26 27 27 23 20 24 24 18 16 18 18 16 17 8 7 9 10 11 14 16 17 19 23 28 29 28 26 20 14 13 13 14 13 10
3 8 4 4 11 15 12 13 11 13 15 18 17 18 19 18 20 22 21 21 21 18 6 7 10 10 9 12 14 14 17 21 24 24 25 24 18 16 14 15 17 14 10 11
10 6 4 5 17 8 14 15 15 17 17 19 19 19 16 13 17 21 23 24 18 11 9 11 9 8 10 12 13 15 19 22 19 21 21 18 18 16 13 15 16 14 13 15
Wind_Direction
20 119 117 103 55 127 120 106 105 65 149 77 76 66 32 47 84 111 132 141 139 145 154 163 176 173 177 176 189 221 236 236 143 120 96 144 230 269 284 285 303 310 308 306
46 76 337 74 67 89 94 126 99 89 112 93 99 62 54 46 59 121 138 135 136 135 137 136 137 134 130 124 136 154 139 124 109 101 157 231 237 248 301 297 291 292 294 297
116 124 83 77 79 120 68 103 165 132 105 96 116 69 43 51 87 108 114 124 127 130 129 126 125 128 131 134 134 128 120 121 140 142 154 256 320 297 297 294 295 298 298 301
78 39 115 103 108 222 87 108 127 122 84 138 323 170 132 120 119 126 129 130 134 134 133 136 138 135 129 128 131 133 136 150 165 176 241 296 306 301 294 295 302 305 302 303
224 112 99 75 308 136 118 133 118 97 102 151 68 121 148 171 195 184 174 157 152 147 143 142 139 139 140 141 147 150 152 163 180 210 245 282 293 294 300 315 319 304 303 303
92 62 55 121 52 60 143 94 54 56 70 258 161 222 192 194 199 187 185 177 162 155 152 150 151 153 151 151 162 161 169 190 208 246 279 316 325 317 317 316 312 309 305 305
26 3 298 111 101 90 76 98 92 180 202 229 335 204 259 206 187 183 184 184 174 169 169 166 163 163 161 163 172 177 189 195 179 331 346 348 338 330 330 328 324 319 315 311
144 287 18 351 81 148 109 165 164 197 197 202 130 229 236 212 202 186 186 182 181 183 183 176 176 180 181 183 182 177 175 186 345 347 341 335 340 344 344 342 337 333 326 320
138 141 351 38 88 149 159 168 113 106 24 212 228 272 267 166 188 182 173 180 185 188 189 191 188 182 173 167 166 164 80 348 344 356 351 351 349 345 346 345 341 336 333 330
188 113 54 100 100 54 127 135 120 45 155 249 251 271 242 202 195 192 184 187 190 194 195 191 181 171 164 162 154 113 43 13 354 346 349 348 348 346 342 341 340 338 335 333
128 105 252 180 8 165 142 127 66 102 66 175 290 256 214 229 203 201 203 195 194 192 187 183 177 170 167 159 137 30 350 328 331 338 341 345 345 343 341 339 338 336 332 332
159 124 132 156 301 303 112 141 139 126 188 71 233 273 163 269 249 221 202 199 196 193 186 181 175 172 169 169 125 0 321 319 327 333 335 336 338 338 340 341 339 336 330 311
187 52 88 22 352 356 212 138 109 105 102 189 164 260 60 294 252 218 194 192 187 185 181 177 177 179 180 164 8 329 306 310 319 325 326 328 330 335 340 339 338 335 328 312
106 110 161 188 190 160 174 174 168 140 141 171 232 267 261 246 227 201 191 188 181 182 181 184 189 194 196 192 323 304 289 300 308 318 321 321 324 332 336 335 334 330 325 317
104 149 119 99 19 250 221 181 187 204 178 191 226 214 244 231 217 206 190 178 177 184 189 196 205 207 202 245 278 243 277 291 309 314 318 317 318 327 328 329 331 328 322 315
15 160 149 183 347 13 277 238 206 229 229 255 251 268 220 255 186 185 191 185 189 193 199 209 215 214 209 227 232 247 282 297 306 315 316 312 314 319 322 328 328 321 311 290
106 140 133 239 1 12 318 224 199 191 206 201 217 242 177 200 206 204 196 198 200 203 210 218 226 224 217 238 235 261 286 300 309 310 311 307 308 313 320 327 324 316 307 293
128 98 64 163 26 250 244 164 180 219 234 217 260 219 206 238 227 225 218 211 212 214 217 226 228 218 228 233 234 267 288 301 304 307 308 303 306 311 316 323 323 316 313 308
50 120 95 157 207 304 287 197 182 183 280 211 223 204 186 168 185 249 222 222 225 222 228 234 229 218 228 233 239 265 284 297 305 311 304 300 303 305 306 319 317 314 308 314
57 65 107 133 179 231 247 259 187 157 284 291 209 167 169 152 175 244 237 228 225 224 224 223 211 218 233 226 250 268 289 300 306 305 303 300 300 303 300 305 305 309 307 305
42 13 167 152 227 283 254 274 145 107 257 274 202 201 178 197 219 241 223 220 226 223 213 198 213 237 225 234 255 282 294 305 305 304 303 304 304 299 293 294 292 298 299 301
179 157 181 110 184 272 189 139 168 227 255 264 218 227 214 242 249 237 227 208 203 199 194 211 212 208 221 248 276 292 304 305 305 306 309 308 303 295 296 289 282 290 297 300
244 197 176 195 219 231 202 232 237 261 275 282 273 264 252 250 245 234 230 189 183 189 197 183 177 225 243 274 295 303 308 304 307 311 310 307 302 300 296 277 280 283 297 290
236 179 209 122 228 240 255 256 265 277 278 287 287 286 276 262 252 222 196 185 179 171 160 158 241 233 263 289 302 310 313 312 312 309 305 307 305 301 286 274 280 278 288 273
200 156 179 261 277 280 283 291 316 303 293 292 295 290 278 264 245 224 192 178 166 157 154 200 227 256 286 306 314 314 316 314 308 305 312 316 318 301 281 267 274 274 265 280
190 186 177 231 272 253 283 306 309 305 304 304 296 286 275 251 220 191 172 161 160 148 177 221 247 284 306 313 315 319 317 312 307 314 322 323 316 314 301 279 277 254 252 275